Wind_Speed
11 12 18 10 16 21 21 24 24 18 12 20 17 17 17 17 24 18 18 18 25 27 33 34 36 34 32 28 34 35 35 32 33 32 29 27 24 21 18 15 12 11 11 10
7 18 14 17 20 23 23 26 32 22 22 10 14 16 13 13 16 23 22 27 27 25 30 28 36 39 38 36 36 38 38 35 36 34 31 27 24 22 19 17 14 13 12 11
12 19 25 23 22 24 24 28 23 23 15 18 5 11 14 15 20 26 32 34 31 35 33 29 33 36 39 41 40 42 41 39 38 37 34 30 26 25 25 21 19 16 15 14
13 9 15 23 24 21 25 20 23 21 16 19 6 18 18 12 19 24 34 35 34 36 35 36 36 40 42 44 43 43 43 41 39 39 39 36 34 33 28 23 20 18 17 16
18 23 22 23 26 24 28 18 22 25 20 19 21 14 27 10 18 22 16 37 39 40 40 40 39 44 45 46 45 45 44 43 41 41 41 38 36 30 25 26 23 21 19 18
27 31 23 26 26 27 19 13 22 19 17 16 26 18 22 20 28 9 17 28 37 40 41 41 41 41 47 43 48 46 47 47 44 42 42 41 38 33 30 30 28 24 22 20
24 22 25 31 26 22 19 11 8 11 10 14 20 17 26 9 18 17 19 20 27 36 40 41 43 41 45 47 46 49 49 49 46 44 43 43 39 35 33 32 30 28 26 24
12 17 17 13 13 13 20 16 9 15 8 24 18 12 22 22 29 33 14 15 17 32 28 40 43 42 43 45 45 50 51 50 48 46 44 43 40 39 35 31 30 28 26 23
16 14 28 29 29 12 5 18 17 23 21 7 7 20 21 18 17 12 10 25 28 20 21 24 39 41 45 46 48 49 52 51 49 47 44 44 43 42 38 33 30 28 26 24
10 23 30 25 19 15 18 9 11 10 9 11 6 22 13 14 24 13 9 10 24 26 25 23 25 37 40 45 46 46 49 53 51 48 46 44 45 43 39 34 33 31 28 26
19 15 28 11 4 15 8 13 11 9 15 5 2 6 3 7 3 2 9 4 7 18 21 26 28 33 36 41 44 46 47 48 49 48 46 43 46 45 40 36 35 32 29 28
23 6 8 16 24 24 20 20 21 13 21 17 12 7 3 4 6 6 7 6 4 5 10 24 29 29 35 39 41 44 44 46 48 48 45 44 47 46 43 39 37 33 30 29
8 5 7 9 6 5 4 14 16 19 15 21 16 13 2 4 8 7 6 8 6 3 4 20 27 27 30 34 40 42 42 44 46 47 45 45 47 46 44 40 38 35 31 30
18 13 7 11 15 16 16 16 23 22 15 14 15 10 25 14 9 7 7 4 2 1 5 9 14 20 25 31 37 41 40 42 44 44 45 46 47 47 44 42 39 36 32 31
8 11 16 17 20 21 20 19 19 16 22 17 19 9 15 6 6 5 6 4 3 4 5 10 14 18 22 27 33 36 38 38 40 41 44 46 46 46 44 42 39 36 33 30
9 10 18 17 19 13 20 21 13 10 15 18 12 9 4 6 10 9 9 6 3 3 7 8 11 17 19 21 24 27 32 34 36 40 43 44 46 46 43 41 40 37 34 32
14 4 8 12 15 25 2 7 9 11 9 13 14 10 8 5 7 9 11 11 9 7 4 5 9 15 18 20 24 28 30 32 33 35 40 43 45 45 43 42 41 39 36 34
14 13 4 6 11 5 4 5 10 11 8 12 8 12 13 5 12 18 20 16 16 16 12 6 4 9 16 18 21 26 29 31 33 33 37 41 42 42 43 42 41 38 36 34
6 4 4 2 3 13 5 5 6 8 7 16 15 9 16 3 22 20 22 19 18 17 14 11 7 5 9 14 18 23 28 31 31 33 35 39 41 42 42 42 41 39 37 35
6 7 4 4 3 4 3 7 9 8 2 18 15 15 9 12 5 6 22 23 22 20 19 16 12 11 10 10 13 19 25 29 28 30 33 36 38 40 42 42 40 38 36 34
2 3 5 7 6 7 7 13 15 5 7 17 25 20 22 14 9 16 25 31 27 26 23 18 15 12 10 9 10 14 18 23 24 25 26 32 35 38 40 40 39 37 36 34
5 3 3 2 2 6 14 6 5 4 8 17 16 22 22 21 19 23 21 26 29 28 30 26 21 19 13 9 8 11 12 15 18 21 23 26 30 32 36 36 36 36 35 35
6 7 3 3 3 4 17 5 6 7 8 11 15 11 11 15 15 21 19 22 23 23 26 27 27 22 19 14 9 9 9 9 12 17 20 23 26 29 31 34 35 36 35 34
6 9 3 3 7 13 9 7 14 8 6 8 8 9 11 13 14 15 16 19 20 21 21 23 22 22 23 19 14 11 8 9 9 14 18 21 23 26 27 29 32 33 34 34
10 6 9 8 15 18 23 24 18 2 8 10 8 10 12 12 13 15 16 11 20 21 20 21 22 19 19 19 16 14 8 7 10 12 15 18 21 22 24 26 29 31 31 32
15 15 5 8 17 10 9 6 4 6 13 13 12 12 9 12 14 15 16 15 17 20 19 19 18 15 14 14 14 13 12 7 5 8 12 15 19 22 23 24 26 26 26 27
Wind_Direction
308 287 242 248 248 259 269 276 273 265 223 243 239 240 249 241 250 249 243 245 236 241 229 226 215 214 222 216 199 209 210 208 205 205 205 209 208 208 206 205 197 190 182 179
319 259 280 282 273 271 260 259 260 279 280 258 247 237 243 243 246 253 240 226 231 238 239 224 213 206 214 220 206 207 214 209 207 209 211 214 209 210 212 208 199 196 185 184
295 279 318 301 297 293 276 257 268 266 276 281 243 264 259 252 261 250 246 242 234 226 228 224 218 209 210 215 212 209 213 214 208 209 208 207 205 209 207 205 203 199 190 187
287 320 322 313 285 269 275 298 291 269 259 255 171 270 250 245 240 234 235 233 230 229 226 222 221 213 212 212 216 209 212 214 207 211 209 209 209 207 209 209 205 200 195 190
265 294 286 271 274 283 270 268 274 299 260 257 259 273 259 226 246 243 232 230 228 225 223 221 221 218 217 216 208 209 208 214 208 210 212 210 211 213 210 204 204 202 199 193
287 285 264 262 260 260 278 292 260 277 270 248 237 228 262 227 233 226 230 240 216 220 222 221 220 219 217 218 209 205 205 211 210 208 213 213 211 209 204 204 202 201 200 196
319 292 279 251 258 254 254 266 243 226 225 235 228 226 237 241 225 228 223 239 231 219 215 216 217 215 212 211 207 205 203 204 210 209 215 213 211 212 211 207 204 202 200 197
316 332 321 315 320 286 245 225 233 231 195 231 208 229 243 236 254 261 247 256 265 229 223 214 215 213 211 209 206 206 202 204 208 211 215 212 209 210 211 210 206 206 205 200
310 290 300 291 294 262 271 235 247 259 286 234 211 244 256 278 222 224 241 240 235 236 222 221 211 208 210 209 208 207 205 207 209 211 212 209 206 209 208 207 206 205 203 199
298 299 292 288 293 262 223 199 220 222 227 238 242 226 223 205 231 231 230 224 233 231 227 219 194 200 203 206 209 210 211 208 209 210 211 208 205 208 208 206 203 203 201 197
290 269 278 295 255 284 283 250 221 284 233 250 242 244 341 285 29 314 277 208 229 224 216 211 216 205 203 203 205 205 206 204 205 207 208 206 204 206 206 204 203 201 200 195
290 264 259 263 275 267 254 269 230 221 227 234 247 276 24 17 62 12 344 344 313 275 240 209 204 202 200 201 200 200 201 201 206 207 205 202 202 204 202 201 200 200 199 195
321 272 299 302 303 72 324 304 310 247 269 230 224 237 232 60 54 29 12 2 323 275 148 178 191 199 196 196 195 193 198 199 204 204 201 198 200 202 201 198 198 198 196 195
331 293 248 281 293 299 296 311 303 257 243 229 246 230 264 274 22 7 6 10 334 248 202 179 182 188 191 189 188 189 189 196 200 201 200 198 200 202 200 197 197 196 194 195
328 293 308 308 299 293 276 286 294 252 234 237 227 236 245 330 347 331 344 351 135 163 178 185 172 169 178 185 188 188 189 196 199 199 199 199 198 201 198 195 195 195 195 196
297 285 305 302 303 296 297 296 309 248 251 242 255 241 49 6 13 21 20 9 44 147 165 189 178 177 173 183 183 182 188 189 186 194 196 197 198 199 196 193 193 194 194 195
293 292 323 293 304 304 279 319 314 313 322 237 235 251 256 48 32 18 17 42 44 71 101 168 183 182 185 184 186 183 181 182 182 184 193 196 196 195 193 192 193 194 195 195
266 275 265 276 301 312 234 350 309 311 350 348 303 270 312 116 90 44 32 47 47 58 68 74 131 174 178 183 187 186 184 180 181 181 186 195 195 194 191 191 194 194 195 196
233 235 277 237 287 274 297 11 8 355 20 354 339 194 255 273 101 36 30 39 47 53 61 74 92 115 140 168 183 184 183 182 181 179 186 193 194 192 190 192 194 195 196 196
223 237 243 326 297 269 38 343 297 306 48 354 349 351 23 345 93 11 28 41 45 52 56 64 89 96 106 138 165 177 181 184 184 181 188 191 193 193 193 194 195 196 199 200
292 292 224 259 276 275 337 327 310 343 339 350 6 9 46 45 56 47 46 49 51 52 55 56 64 85 103 114 132 159 177 186 190 190 192 192 193 194 195 195 197 197 198 200
201 189 241 225 232 279 356 14 40 208 301 359 30 17 25 14 10 16 28 32 36 48 48 49 52 58 78 108 121 137 156 177 190 194 193 194 195 195 197 199 198 199 200 201
245 198 206 217 232 313 315 284 320 327 355 10 30 20 33 25 16 4 3 14 18 27 36 38 43 51 57 66 92 126 132 158 177 185 189 192 194 197 200 201 202 201 202 204
262 240 229 44 258 256 282 308 313 312 16 21 25 17 20 6 360 13 357 351 8 11 18 19 28 38 45 51 61 83 118 141 157 176 184 189 195 198 200 202 205 207 206 206
232 161 217 251 267 267 267 279 269 273 357 346 347 356 1 355 347 342 343 343 339 352 351 357 7 18 29 39 49 55 74 125 153 168 181 189 195 201 203 204 210 213 215 218
224 226 184 233 243 239 265 209 252 309 325 322 322 328 340 341 327 323 318 319 318 331 338 343 347 359 12 24 36 46 53 71 128 170 180 191 194 198 203 206 207 209 216 220
Height
1486 1483 1467 1471 1469 1462 1458 1451 1442 1427 1428 1433 1428 1427 1424 1425 1426 1424 1422 1424 1426 1429 1434 1436 1440 1444 1447 1453 1458 1461 1465 1469 1473 1476 1481 1484 1488 1493 1497 1500 1503 1505 1507 1509
1489 1474 1467 1469 1464 1461 1455 1450 1434 1436 1431 1426 1422 1421 1419 1418 1417 1418 1416 1417 1420 1424 1426 1430 1432 1436 1439 1443 1449 1454 1458 1462 1466 1471 1476 1481 1486 1490 1495 1498 1501 1503 1506 1508
1491 1468 1476 1476 1472 1471 1455 1444 1440 1438 1435 1423 1423 1422 1417 1410 1411 1410 1407 1408 1410 1412 1417 1421 1425 1429 1433 1436 1441 1445 1449 1455 1460 1465 1471 1477 1482 1486 1489 1494 1498 1501 1504 1506
1481 1475 1476 1478 1468 1470 1461 1454 1443 1436 1438 1433 1426 1416 1408 1402 1396 1396 1393 1396 1397 1402 1407 1412 1416 1419 1424 1429 1434 1439 1443 1447 1454 1458 1464 1469 1472 1476 1483 1490 1494 1498 1502 1504
1473 1478 1479 1473 1464 1462 1446 1454 1450 1446 1427 1428 1428 1425 1374 1396 1388 1379 1382 1385 1387 1390 1394 1400 1404 1408 1414 1421 1427 1432 1437 1441 1447 1451 1457 1464 1469 1475 1481 1485 1490 1495 1499 1502
1472 1473 1470 1460 1456 1452 1450 1450 1440 1442 1433 1428 1410 1418 1372 1381 1362 1376 1372 1372 1374 1378 1383 1389 1395 1399 1402 1410 1419 1425 1429 1432 1439 1444 1449 1456 1463 1469 1474 1480 1485 1490 1495 1499
1474 1461 1454 1444 1448 1444 1445 1455 1441 1429 1426 1415 1393 1407 1368 1356 1360 1359 1362 1364 1365 1366 1371 1378 1384 1389 1393 1399 1408 1416 1422 1426 1431 1437 1442 1449 1457 1464 1469 1474 1480 1485 1490 1494
1476 1470 1450 1437 1453 1452 1432 1440 1424 1411 1404 1387 1394 1387 1361 1363 1362 1353 1354 1357 1359 1360 1363 1367 1373 1381 1383 1389 1398 1406 1413 1419 1424 1429 1434 1443 1451 1457 1464 1470 1475 1481 1486 1492
1484 1468 1454 1447 1438 1441 1429 1431 1419 1422 1406 1391 1385 1370 1359 1345 1346 1348 1349 1351 1353 1354 1356 1359 1364 1371 1377 1381 1388 1395 1404 1412 1417 1422 1427 1435 1444 1451 1458 1466 1472 1478 1483 1489
1483 1473 1440 1433 1429 1422 1422 1415 1423 1418 1396 1388 1374 1356 1355 1341 1342 1344 1346 1345 1346 1349 1351 1355 1359 1364 1369 1375 1382 1389 1396 1403 1409 1416 1422 1429 1437 1445 1453 1461 1467 1472 1479 1485
1482 1472 1436 1436 1427 1413 1412 1403 1409 1408 1392 1383 1386 1363 1343 1341 1340 1341 1341 1341 1342 1345 1347 1348 1353 1359 1365 1371 1376 1383 1391 1398 1405 1410 1417 1424 1431 1438 1447 1455 1462 1468 1475 1481
1470 1456 1450 1435 1413 1406 1405 1406 1397 1403 1393 1379 1379 1366 1346 1345 1343 1342 1342 1341 1342 1344 1343 1346 1348 1354 1360 1365 1371 1377 1384 1392 1398 1404 1412 1419 1425 1433 1441 1450 1457 1464 1472 1478
1469 1455 1441 1429 1408 1405 1411 1406 1400 1385 1386 1369 1378 1369 1349 1344 1344 1346 1346 1345 1343 1343 1343 1343 1347 1351 1356 1361 1365 1371 1379 1385 1392 1399 1407 1414 1421 1427 1436 1445 1453 1461 1468 1475
1469 1455 1439 1433 1426 1420 1411 1403 1396 1389 1379 1374 1368 1368 1347 1348 1349 1349 1348 1347 1345 1344 1345 1345 1347 1351 1355 1359 1362 1367 1374 1380 1387 1395 1402 1409 1415 1423 1431 1440 1449 1457 1465 1471
1469 1456 1443 1433 1425 1416 1404 1397 1392 1373 1363 1368 1361 1372 1357 1352 1351 1350 1348 1347 1346 1345 1346 1346 1349 1350 1354 1358 1362 1367 1371 1376 1384 1391 1398 1404 1412 1419 1428 1437 1446 1454 1462 1468
1463 1455 1444 1431 1420 1407 1402 1389 1377 1374 1365 1366 1363 1363 1352 1350 1350 1349 1349 1348 1347 1345 1346 1346 1348 1350 1354 1357 1361 1365 1369 1374 1381 1387 1394 1401 1408 1415 1424 1433 1441 1450 1457 1464
1460 1452 1448 1434 1419 1405 1394 1384 1381 1376 1364 1357 1366 1358 1352 1354 1355 1356 1353 1351 1350 1348 1346 1347 1347 1349 1353 1355 1358 1363 1367 1372 1379 1385 1391 1398 1405 1412 1421 1430 1437 1445 1452 1460
1453 1450 1448 1443 1430 1428 1387 1382 1379 1374 1367 1366 1361 1358 1357 1354 1357 1359 1359 1356 1354 1351 1350 1351 1349 1350 1352 1354 1358 1362 1367 1372 1377 1382 1387 1394 1402 1410 1418 1427 1434 1441 1449 1456
1445 1448 1450 1451 1438 1408 1387 1386 1386 1383 1373 1373 1366 1354 1360 1355 1355 1363 1365 1361 1359 1356 1354 1354 1354 1353 1352 1354 1358 1362 1366 1371 1376 1380 1385 1391 1398 1407 1415 1423 1430 1438 1445 1452
1438 1439 1443 1443 1442 1438 1395 1389 1383 1381 1379 1379 1373 1362 1359 1356 1361 1377 1371 1366 1363 1361 1359 1359 1359 1357 1357 1358 1360 1363 1367 1371 1376 1380 1384 1390 1397 1405 1412 1420 1427 1435 1442 1449
1451 1449 1445 1437 1426 1413 1396 1391 1385 1386 1402 1392 1387 1377 1371 1375 1381 1380 1375 1371 1370 1367 1364 1363 1363 1361 1361 1362 1363 1365 1368 1372 1377 1382 1386 1391 1397 1404 1411 1418 1425 1432 1439 1446
1447 1451 1450 1439 1439 1432 1398 1392 1397 1404 1397 1394 1390 1388 1384 1383 1382 1378 1376 1375 1375 1373 1372 1370 1368 1365 1365 1365 1366 1367 1370 1373 1377 1382 1387 1392 1398 1404 1410 1417 1423 1430 1437 1443
1434 1427 1433 1423 1412 1403 1401 1403 1401 1400 1398 1396 1392 1390 1387 1388 1386 1383 1379 1379 1380 1379 1377 1376 1375 1371 1370 1369 1369 1370 1372 1375 1378 1382 1387 1392 1397 1403 1408 1414 1420 1427 1433 1440
1416 1413 1420 1418 1404 1402 1402 1401 1400 1398 1397 1395 1394 1394 1390 1386 1385 1385 1385 1385 1383 1381 1381 1381 1380 1379 1376 1373 1373 1373 1374 1377 1380 1383 1387 1391 1397 1401 1407 1413 1418 1424 1430 1435
1408 1409 1409 1407 1400 1399 1398 1399 1398 1397 1396 1394 1393 1392 1390 1388 1387 1386 1385 1387 1387 1386 1384 1383 1382 1382 1382 1379 1377 1377 1378 1379 1381 1384 1388 1392 1397 1401 1405 1411 1415 1421 1427 1433
1394 1396 1405 1399 1391 1394 1393 1394 1395 1395 1394 1394 1393 1391 1390 1389 1387 1386 1384 1385 1385 1386 1386 1388 1388 1387 1386 1383 1381 1380 1381 1382 1383 1386 1388 1392 1395 1400 1404 1409 1413 1418 1424 1430